Mineral Point, WI

6:46 AM CDT on April 30, 2017 (GMT -0500)
Iowa County

Weather History for KMRJ - November, 2011

Change the Weather History Date:

Thursday, November 3, 2011

  Actual Average (KLNR) Record (KLNR)
Temperature  
Mean Temperature 44 °F -  
Max Temperature 50 °F 49 °F 75 °F (2008)
Min Temperature 39 °F 32 °F 12 °F (2006)
Degree Days  
Heating Degree Days 20    
Moisture  
Dew Point 33 °F    
Average Humidity 68    
Maximum Humidity 87    
Minimum Humidity 43    
Precipitation  
Precipitation 0.00 in - - ()
Sea Level Pressure  
Sea Level Pressure 30.12 in    
Wind  
Wind Speed 11 mph (NNE)    
Max Wind Speed 20 mph    
Max Gust Speed 28 mph    
Visibility 10 miles    
Events      
Averages and records for this station are not official NWS values.
T = Trace of Precipitation, MM = Missing Value Source: NWS Daily Summary

Daily Weather History Graph

Daily Weather History Graph

Search for Another Location

Airport or City:

Trip Planner

Search our weather history database for the weather conditions in past years. The results will help you decide how hot, cold, wet, or windy it might be!

Date:

Astronomy

Nov. 03, 2011 Rise Set
Actual Time 7:37 AM CDT 5:50 PM CDT
Civil Twilight 7:07 AM CDT 6:20 PM CDT
Nautical Twilight 6:34 AM CDT 6:54 PM CDT
Astronomical Twilight 6:01 AM CDT 7:27 PM CDT
Moon 2:23 PM CDT (11/3) 12:40 AM CDT (11/3)
Length of Visible Light 11h 12m
Length of Day
10h 13m
First Quarter, 60% of the Moon is Illuminated
Nov 3
First Quarter
Nov 10
Full
Nov 18
Last Quarter
Nov 25
New
Dec 2
First Quarter

Hourly Weather History & Observations

Time (CDT) Temp. Windchill Dew Point Humidity Pressure Visibility Wind Dir Wind Speed Gust Speed Precip Events Conditions
12:15 AM 39.2 °F 35.0 °F 35.6 °F 87% 30.10 in 10.0 mi NNE 5.8 mph - N/A   Overcast
12:35 AM 41.0 °F 35.8 °F 35.6 °F 81% 30.10 in 10.0 mi NE 8.1 mph - N/A   Overcast
12:55 AM 41.0 °F 36.4 °F 35.6 °F 81% 30.12 in 10.0 mi NE 6.9 mph - N/A   Light Drizzle
1:15 AM 41.0 °F 36.4 °F 35.6 °F 81% 30.11 in 10.0 mi NE 6.9 mph - N/A   Light Drizzle
1:35 AM 39.2 °F 34.2 °F 35.6 °F 87% 30.11 in 10.0 mi North 6.9 mph - N/A   Overcast
1:55 AM 39.2 °F 34.2 °F 35.6 °F 87% 30.09 in 10.0 mi NNE 6.9 mph - N/A   Overcast
2:15 AM 39.2 °F 33.6 °F 35.6 °F 87% 30.09 in 10.0 mi NNE 8.1 mph - N/A   Overcast
2:55 AM 41.0 °F 35.2 °F 35.6 °F 81% 30.07 in 10.0 mi NE 9.2 mph - N/A   Overcast
3:15 AM 41.0 °F 35.8 °F 35.6 °F 81% 30.08 in 10.0 mi NNE 8.1 mph - N/A   Overcast
3:35 AM 41.0 °F 35.8 °F 35.6 °F 81% 30.09 in 10.0 mi NNE 8.1 mph - N/A   Overcast
3:55 AM 41.0 °F 35.2 °F 35.6 °F 81% 30.08 in 10.0 mi NNE 9.2 mph - N/A   Overcast
4:15 AM 41.0 °F 33.5 °F 35.6 °F 81% 30.06 in 10.0 mi NNE 13.8 mph 18.4 mph N/A   Overcast
4:55 AM 41.0 °F 33.5 °F 35.6 °F 81% 30.04 in 10.0 mi NE 13.8 mph 23.0 mph N/A   Overcast
5:15 AM 41.0 °F 33.5 °F 35.6 °F 81% 30.05 in 10.0 mi NE 13.8 mph 24.2 mph N/A   Mostly Cloudy
5:35 AM 41.0 °F 32.5 °F 35.6 °F 81% 30.07 in 10.0 mi NE 17.3 mph 23.0 mph N/A   Clear
5:55 AM 41.0 °F 33.1 °F 33.8 °F 76% 30.08 in 10.0 mi NE 15.0 mph 19.6 mph N/A   Scattered Clouds
6:15 AM 41.0 °F 32.5 °F 33.8 °F 76% 30.07 in 10.0 mi NE 17.3 mph 21.9 mph N/A   Clear
6:35 AM 41.0 °F 32.5 °F 33.8 °F 76% 30.08 in 10.0 mi NE 17.3 mph 23.0 mph N/A   Clear
6:55 AM 41.0 °F 33.5 °F 33.8 °F 76% 30.09 in 10.0 mi NNE 13.8 mph 19.6 mph N/A   Clear
7:15 AM 41.0 °F 32.5 °F 33.8 °F 76% 30.09 in 10.0 mi North 17.3 mph 21.9 mph N/A   Clear
7:35 AM 41.0 °F 32.8 °F 33.8 °F 76% 30.10 in 10.0 mi NNE 16.1 mph 23.0 mph N/A   Clear
7:55 AM 41.0 °F 32.8 °F 33.8 °F 76% 30.10 in 10.0 mi NNE 16.1 mph 24.2 mph N/A   Clear
8:15 AM 41.0 °F 33.1 °F 33.8 °F 76% 30.10 in 10.0 mi NNE 15.0 mph 23.0 mph N/A   Clear
8:35 AM 41.0 °F 33.1 °F 33.8 °F 76% 30.11 in 10.0 mi NNE 15.0 mph 24.2 mph N/A   Clear
8:55 AM 41.0 °F 33.9 °F 33.8 °F 76% 30.13 in 10.0 mi NNE 12.7 mph - N/A   Clear
9:15 AM 41.0 °F 33.1 °F 33.8 °F 76% 30.13 in 10.0 mi NNE 15.0 mph 21.9 mph N/A   Clear
9:35 AM 41.0 °F 33.9 °F 33.8 °F 76% 30.12 in 10.0 mi NNE 12.7 mph 19.6 mph N/A   Clear
9:55 AM 41.0 °F 33.1 °F 33.8 °F 76% 30.11 in 10.0 mi NNE 15.0 mph 27.6 mph N/A   Clear
10:15 AM 41.0 °F 33.1 °F 33.8 °F 76% 30.12 in 10.0 mi NNE 15.0 mph 20.7 mph N/A   Clear
10:35 AM 42.8 °F 35.8 °F 33.8 °F 70% 30.15 in 10.0 mi NNE 13.8 mph 19.6 mph N/A   Clear
10:55 AM 42.8 °F 35.1 °F 33.8 °F 70% 30.16 in 10.0 mi NE 16.1 mph 21.9 mph N/A   Clear
11:15 AM 42.8 °F 36.2 °F 33.8 °F 70% 30.17 in 10.0 mi NE 12.7 mph 21.9 mph N/A   Clear
11:35 AM 42.8 °F 35.8 °F 33.8 °F 70% 30.16 in 10.0 mi NNE 13.8 mph 19.6 mph N/A   Clear
11:55 AM 44.6 °F 37.4 °F 33.8 °F 66% 30.15 in 10.0 mi NNE 16.1 mph 25.3 mph N/A   Clear
12:15 PM 44.6 °F 36.9 °F 32.0 °F 61% 30.14 in 10.0 mi NE 18.4 mph 26.5 mph N/A   Clear
12:35 PM 46.4 °F 39.5 °F 32.0 °F 57% 30.14 in 10.0 mi NE 17.3 mph 23.0 mph N/A   Clear
12:55 PM 46.4 °F 40.1 °F 32.0 °F 57% 30.14 in 10.0 mi NE 15.0 mph 23.0 mph N/A   Clear
1:15 PM 48.2 °F - 32.0 °F 54% 30.13 in 10.0 mi NE 19.6 mph 24.2 mph N/A   Clear
1:35 PM 50.0 °F - 32.0 °F 50% 30.13 in 10.0 mi NNE 11.5 mph 17.3 mph N/A   Clear
1:55 PM 48.2 °F - 30.2 °F 50% 30.13 in 10.0 mi NNE 12.7 mph - N/A   Clear
2:15 PM 50.0 °F - 32.0 °F 50% 30.13 in 10.0 mi NNE 11.5 mph 17.3 mph N/A   Clear
2:35 PM 50.0 °F - 30.2 °F 47% 30.13 in 10.0 mi NNE 10.4 mph 16.1 mph N/A   Clear
2:55 PM 50.0 °F - 28.4 °F 43% 30.14 in 10.0 mi NNE 17.3 mph - N/A   Clear
3:15 PM 50.0 °F - 30.2 °F 47% 30.15 in 10.0 mi NNE 10.4 mph 17.3 mph N/A   Clear
3:35 PM 50.0 °F - 28.4 °F 43% 30.15 in 10.0 mi North 12.7 mph - N/A   Clear
3:55 PM 50.0 °F - 28.4 °F 43% 30.15 in 10.0 mi NNE 11.5 mph 18.4 mph N/A   Clear
4:15 PM 50.0 °F - 30.2 °F 47% 30.16 in 10.0 mi North 12.7 mph - N/A   Clear
4:35 PM 50.0 °F - 28.4 °F 43% 30.16 in 10.0 mi North 10.4 mph 17.3 mph N/A   Clear
4:55 PM 48.2 °F - 28.4 °F 46% 30.17 in 10.0 mi NNE 10.4 mph 18.4 mph N/A   Clear
5:15 PM 46.4 °F 42.9 °F 30.2 °F 53% 30.17 in 10.0 mi NNE 6.9 mph - N/A   Clear
5:35 PM 46.4 °F 42.9 °F 30.2 °F 53% 30.17 in 10.0 mi NNE 6.9 mph - N/A   Clear
5:55 PM 44.6 °F 40.7 °F 30.2 °F 57% 30.18 in 10.0 mi North 6.9 mph - N/A   Clear
6:15 PM 44.6 °F 40.7 °F 30.2 °F 57% 30.19 in 10.0 mi North 6.9 mph - N/A   Clear
6:35 PM 42.8 °F 39.3 °F 30.2 °F 61% 30.20 in 10.0 mi North 5.8 mph - N/A   Clear
6:55 PM 42.8 °F 38.6 °F 30.2 °F 61% 30.20 in 10.0 mi North 6.9 mph - N/A   Clear
7:15 PM 41.0 °F 35.8 °F 30.2 °F 65% 30.20 in 10.0 mi North 8.1 mph - N/A   Clear
7:35 PM 41.0 °F 35.8 °F 28.4 °F 61% 30.21 in 10.0 mi North 8.1 mph - N/A   Clear
8:15 PM 39.2 °F 33.6 °F 28.4 °F 65% 30.21 in 10.0 mi NNE 8.1 mph - N/A   Clear
8:35 PM 41.0 °F 35.2 °F 28.4 °F 61% 30.21 in 10.0 mi NNE 9.2 mph - N/A   Clear
8:55 PM 39.2 °F 33.6 °F 28.4 °F 65% 30.21 in 10.0 mi NNE 8.1 mph - N/A   Clear
9:35 PM 37.4 °F 32.1 °F 28.4 °F 70% 30.23 in 10.0 mi North 6.9 mph - N/A   Clear
9:55 PM 37.4 °F 32.8 °F 28.4 °F 70% 30.24 in 10.0 mi NNE 5.8 mph - N/A   Clear
10:15 PM 37.4 °F 32.1 °F 28.4 °F 70% 30.24 in 10.0 mi NNE 6.9 mph - N/A   Clear
10:35 PM 37.4 °F 32.1 °F 28.4 °F 70% 30.23 in 10.0 mi NNE 6.9 mph - N/A   Clear
10:55 PM 35.6 °F 29.9 °F 28.4 °F 75% 30.24 in 10.0 mi North 6.9 mph - N/A   Clear
11:15 PM 35.6 °F 29.9 °F 28.4 °F 75% 30.25 in 10.0 mi North 6.9 mph - N/A   Clear